Regional Weather Roundup
Issued by NWS

Home | Current Version | Previous Version | Graphics & Text | Print | Product List | Glossary On
Versions: 1 2 3 4 5 6 7 8 9 10 11 12 13 14 15 16 17 18 19 20 21 22 23 24 25 26 27 28 29 30 31 32 33 34 35 36 37 38 39 40 41 42 43 44 45 46 47 48 49 50
000
ASUS43 KLOT 300900
RWRIL

ILLINOIS REGIONAL WEATHER ROUNDUP
NATIONAL WEATHER SERVICE CHICAGO/ROMEOVILLE IL
400 AM CDT WED JUL 30 2014

NOTE: "FAIR" INDICATES FEW OR NO CLOUDS BELOW 12,000 FEET WITH NO
SIGNIFICANT WEATHER AND/OR OBSTRUCTIONS TO VISIBILITY.

* THESE STATIONS ARE NOT UNDER NWS QUALITY CONTROL. THEY ALSO MAY NOT
  REPORT WEATHER SUCH AS PRECIPITATION OR FOG.

ILZ001-002-007-009-015-016-024-301000-
NORTHWEST ILLINOIS

CITY           SKY/WX    TMP DP  RH WIND       PRES   REMARKS
MOLINE         CLEAR     58  55  90 CALM      30.04S
STERLING*      MOCLDY    61  57  88 W3        30.04S
SAVANNA*       MOCLDY    60  58  92 CALM      30.04R
$$

ILZ003-004-008-010-011-017-018-301000-
NORTH CENTRAL ILLINOIS

CITY           SKY/WX    TMP DP  RH WIND       PRES   REMARKS
ROCKFORD       MOCLDY    58  54  86 CALM      30.04S
FREEPORT*      PTCLDY    57  56  94 CALM      30.05S
$$

ILZ005-006-012>014-019>023-301000-
NORTHEAST ILLINOIS

CITY           SKY/WX    TMP DP  RH WIND       PRES   REMARKS
CHICAGO-OHARE  PTCLDY    60  53  77 SW5       30.00S
CHICAGO-MIDWAY PTCLDY    62  56  80 W3        30.00S
AURORA         PTCLDY    57  53  86 CALM      30.02S
LANSING*       CLEAR     55  52  90 CALM      30.01S
WAUKEGAN       CLEAR     58  55  90 VRB5      29.99S
DUPAGE AIRPORT CLEAR     58  55  90 CALM      30.01S
WHEELING       CLEAR     61  56  83 CALM      30.02R
NORTHERLY ISL    N/A     63  55  75 W3          N/A
$$

LMZ740>746-301000-
SOUTHERN LAKE MICHIGAN

STATION/POSITION SKY/WX   TEMP    WIND        PRES    VSBY  WAVE
                          AIR SEA DIR/SP/G                  HT/PER
                          (F)     (DEG/KT/KT) (MB)    (MI)  (FT/S)
SOUTHERN BUOY              61 61  200/  2/  4 1015.6F         1/ 3
WAUKEGAN HARBOR            61     280/  9/ 12   N/A
HARRISON CRIB              64     260/  8/ 10   N/A
BURNHAM HARBOR             63     240/  4/  8   N/A
CALUMET HARBOR             62     250/  3/  4 1014.8S
MICHIGAN CITY              62     180/  5/  7   N/A
MICHIGAN CITY 6N           66 68  290/ 10/ 12   N/A           1/ 3
ST. JOSEPH                 64 67  280/  4/  6   N/A           1
$$

ILZ025>027-034>036-040-047-049-050-058-095>099-301000-
WEST-CENTRAL ILLINOIS

CITY           SKY/WX    TMP DP  RH WIND       PRES   REMARKS
QUINCY         CLEAR     59  57  93 W3        30.07F
GALESBURG*     CLEAR     56  55  95 W3        30.06R
MACOMB*        CLEAR     56  55  99 W6        30.08S
$$

ILZ028>032-037-038-041>044-048-051>054-059>061-301000-
CENTRAL ILLINOIS

CITY           SKY/WX    TMP DP  RH WIND       PRES   REMARKS
PONTIAC        CLEAR     59  57  94 CALM      30.03S
DECATUR        CLEAR     64  57  78 W7        30.06S
PEORIA         CLEAR     63  56  78 W5        30.05S
SPRINGFIELD    CLEAR     59  56  89 SW3       30.07S
TAYLORVILLE    NOT AVBL
$$

ILZ033-039-045-046-055>057-062-063-301000-
EAST-CENTRAL ILLINOIS

CITY           SKY/WX    TMP DP  RH WIND       PRES   REMARKS
CHAMPAIGN      CLEAR     57  55  93 NW5       30.05S
MATTOON        CLEAR     61  55  81 W6        30.05S
$$

ILZ079-100>102-301000-
SOUTHWEST ILLINOIS

CITY           SKY/WX    TMP DP  RH WIND       PRES   REMARKS
BELLEVILLE     CLEAR     57  57  99 CALM      30.07S
CAHOKIA*       MOCLDY    59  56  89 CALM      30.07F
SPARTA*        CLEAR     57  54  88 CALM      30.09S
$$

ILZ064>066-069>071-074>076-080>082-084>086-088>090-092>094-301000-
SOUTH-CENTRAL ILLINOIS

CITY           SKY/WX    TMP DP  RH WIND       PRES   REMARKS
CARBONDALE     CLEAR     57  55  93 CALM      30.09S FOG
MT. VERNON     CLEAR     55  50  82 CALM      30.08F VSB 1
SALEM*         CLEAR    N/A N/A N/A CALM      30.08S
$$

ILZ067-068-072-073-078-083-087-091-301000-
SOUTHEAST ILLINOIS

CITY           SKY/WX    TMP DP  RH WIND       PRES   REMARKS
LAWRENCEVILLE  CLEAR     58  55  90 CALM      30.07S
HARRISBURG*    CLEAR     56  56 100 CALM      30.09S FOG
ROBINSON*      CLEAR     59  56  90 CALM      30.07S
CARMI*         CLEAR     57  57 100 CALM      30.07S
$$

ABBREVIATIONS USED IN REMARKS
   TC - TEMPERATURE IN CELSIUS
  WCI - WIND CHILL INDEX
   HX - HEAT INDEX
  VSB - VISIBILITY
$$



USA.gov is the U.S. government's official web portal to all federal, state and local government web resources and services.